Fort Campbell, KY

11:57 PM CST on February 20, 2018 (GMT -0600)
Campbell Army Air Field

Weather History for KHOP - June, 2013

Change the Weather History Date:

Sunday, June 9, 2013

  Actual Average Record
Temperature  
Mean Temperature 72 °F -  
Max Temperature 84 °F 81 °F 91 °F (1999)
Min Temperature 63 °F 63 °F 54 °F (2017)
Cooling Degree Days 8    
Growing Degree Days 22 (Base 50)    
Moisture  
Dew Point 69 °F    
Average Humidity 95    
Maximum Humidity 100    
Minimum Humidity 65    
Precipitation  
Precipitation 0.70 in - - ()
Sea Level Pressure  
Sea Level Pressure 29.95 in    
Wind  
Wind Speed 6 mph (South)    
Max Wind Speed 12 mph    
Max Gust Speed -    
Visibility 9 miles    
Events Rain , Thunderstorm    
Averages and records for this station are not official NWS values.
T = Trace of Precipitation, MM = Missing Value Source: NWS Daily Summary

Daily Weather History Graph

Daily Weather History Graph

Search for Another Location

Airport or City:

Trip Planner

Search our weather history database for the weather conditions in past years. The results will help you decide how hot, cold, wet, or windy it might be!

Date:

Astronomy

Jun. 09, 2013 Rise Set
Actual Time 5:30 AM CDT 8:07 PM CDT
Civil Twilight 5:00 AM CDT 8:38 PM CDT
Nautical Twilight 4:22 AM CDT 9:16 PM CDT
Astronomical Twilight 3:40 AM CDT 9:58 PM CDT
Moon 6:25 AM CDT (6/9) 8:56 PM CDT (6/9)
Length of Visible Light 15h 37m
Length of Day
14h 36m
New Moon, 1% of the Moon is Illuminated
Jun 9
New Moon
Jun 16
First Quarter
Jun 23
Full
Jun 29
Last Quarter
Jul 8
New

Hourly Weather History & Observations

Time (CDT) Temp. Heat Index Dew Point Humidity Pressure Visibility Wind Dir Wind Speed Gust Speed Precip Events Conditions
12:58 AM 65.8 °F - 65.8 °F 100% 30.04 in 10.0 mi East 2.3 mph - N/A   Clear
1:58 AM 65.3 °F - 65.3 °F 100% 30.02 in 10.0 mi ESE 3.5 mph - N/A   Mostly Cloudy
2:58 AM 64.2 °F - 64.2 °F 100% 30.01 in 10.0 mi ESE 2.3 mph - N/A   Partly Cloudy
3:58 AM 63.5 °F - 63.5 °F 100% 30.01 in 10.0 mi East 2.3 mph - N/A   Partly Cloudy
4:58 AM 63.5 °F - 63.5 °F 100% 30.01 in 10.0 mi Calm Calm - N/A   Overcast
5:58 AM 64.2 °F - 64.2 °F 100% 30.01 in 10.0 mi ESE 6.9 mph - N/A   Overcast
6:58 AM 66.0 °F - 66.0 °F 100% 30.01 in 10.0 mi East 4.6 mph - N/A   Partly Cloudy
7:58 AM 70.0 °F - 66.9 °F 90% 30.01 in 10.0 mi SE 6.9 mph - N/A   Scattered Clouds
8:24 AM 69.8 °F - 64.4 °F 83% 30.02 in 10.0 mi SSE 11.5 mph - N/A   Light Drizzle
8:41 AM 68.0 °F - 66.2 °F 94% 30.04 in 9.0 mi South 10.4 mph - N/A Rain Light Rain
8:43 AM 68.0 °F - 68.0 °F 100% 30.03 in 9.0 mi South 10.4 mph - N/A Rain Light Rain
8:58 AM 66.2 °F - 66.2 °F 100% 30.01 in 5.0 mi SE 6.9 mph - 0.03 in Rain , Thunderstorm Light Rain
9:22 AM 66.2 °F - 66.2 °F 100% 30.01 in 10.0 mi ESE 8.1 mph - N/A Thunderstorm Mostly Cloudy
9:37 AM 68.0 °F - 68.0 °F 100% 30.01 in 10.0 mi ESE 8.1 mph - N/A   Mostly Cloudy
9:43 AM 68.0 °F - 68.0 °F 100% 30.01 in 10.0 mi ESE 6.9 mph - N/A   Overcast
9:46 AM 68.0 °F - 68.0 °F 100% 30.01 in 10.0 mi SE 8.1 mph - N/A   Overcast
9:58 AM 67.5 °F - 67.5 °F 100% 30.01 in 10.0 mi SE 8.1 mph - 0.05 in   Overcast
10:10 AM 68.0 °F - 68.0 °F 100% 30.01 in 10.0 mi SSE 6.9 mph - N/A   Mostly Cloudy
10:44 AM 69.8 °F - 69.8 °F 100% 30.01 in 10.0 mi Variable 2.3 mph - N/A   Mostly Cloudy
10:46 AM 69.8 °F - 69.8 °F 100% 30.01 in 10.0 mi Calm Calm - N/A   Mostly Cloudy
10:58 AM 70.9 °F - 70.9 °F 100% 30.01 in 10.0 mi Variable 2.3 mph - N/A   Mostly Cloudy
11:22 AM 73.4 °F - 71.6 °F 94% 30.00 in 10.0 mi Variable 3.5 mph - N/A   Mostly Cloudy
11:25 AM 73.4 °F - 71.6 °F 94% 30.00 in 10.0 mi South 4.6 mph - N/A   Mostly Cloudy
11:28 AM 73.4 °F - 71.6 °F 94% 30.00 in 10.0 mi SE 5.8 mph - N/A   Light Drizzle
11:35 AM 73.4 °F - 71.6 °F 94% 29.99 in 10.0 mi SE 5.8 mph - N/A   Light Drizzle
11:36 AM 73.4 °F - 71.6 °F 94% 29.99 in 10.0 mi SE 5.8 mph - N/A   Mostly Cloudy
11:45 AM 73.4 °F - 71.6 °F 94% 30.00 in 10.0 mi SE 5.8 mph - N/A   Mostly Cloudy
11:50 AM 73.4 °F - 71.6 °F 94% 30.00 in 10.0 mi SSE 6.9 mph - N/A   Light Drizzle
11:58 AM 72.7 °F - 71.6 °F 96% 30.00 in 10.0 mi South 5.8 mph - 0.00 in   Light Drizzle
12:11 PM 71.6 °F - 71.6 °F 100% 30.00 in 10.0 mi SE 9.2 mph - N/A   Mostly Cloudy
12:24 PM 73.4 °F - 71.6 °F 94% 30.00 in 10.0 mi SSE 5.8 mph - N/A   Mostly Cloudy
12:25 PM 73.4 °F - 71.6 °F 94% 30.00 in 10.0 mi SSE 5.8 mph - N/A   Mostly Cloudy
12:27 PM 73.4 °F - 71.6 °F 94% 29.99 in 10.0 mi SSE 8.1 mph - N/A   Mostly Cloudy
12:29 PM 73.4 °F - 71.6 °F 94% 29.99 in 10.0 mi SSE 9.2 mph - N/A   Mostly Cloudy
12:33 PM 73.4 °F - 71.6 °F 94% 29.99 in 10.0 mi South 6.9 mph - N/A   Mostly Cloudy
12:36 PM 73.4 °F - 69.8 °F 88% 29.99 in 10.0 mi South 6.9 mph - N/A   Mostly Cloudy
12:38 PM 73.4 °F - 69.8 °F 88% 29.99 in 10.0 mi South 9.2 mph - N/A   Mostly Cloudy
12:52 PM 75.2 °F - 71.6 °F 89% 29.99 in 10.0 mi South 6.9 mph - N/A   Mostly Cloudy
12:58 PM 75.4 °F - 70.7 °F 85% 29.98 in 10.0 mi South 8.1 mph - 0.00 in   Overcast
1:00 PM 75.2 °F - 71.6 °F 89% 29.98 in 10.0 mi South 6.9 mph - N/A   Mostly Cloudy
1:02 PM 75.2 °F - 71.6 °F 89% 29.98 in 10.0 mi South 4.6 mph - N/A   Overcast
1:04 PM 75.2 °F - 71.6 °F 89% 29.98 in 10.0 mi Variable 2.3 mph - N/A   Mostly Cloudy
1:05 PM 75.2 °F - 71.6 °F 89% 29.97 in 10.0 mi Variable 2.3 mph - N/A   Overcast
1:10 PM 75.2 °F - 69.8 °F 83% 29.97 in 10.0 mi Variable 5.8 mph - N/A   Mostly Cloudy
1:58 PM 78.4 °F - 69.4 °F 74% 29.92 in 10.0 mi South 6.9 mph - N/A   Partly Cloudy
2:58 PM 81.1 °F 84.7 °F 70.0 °F 69% 29.91 in 10.0 mi SE 8.1 mph - N/A   Scattered Clouds
3:58 PM 82.4 °F 86.1 °F 69.6 °F 65% 29.87 in 10.0 mi South 6.9 mph - N/A   Scattered Clouds
4:58 PM 82.2 °F 86.0 °F 70.0 °F 66% 29.84 in 10.0 mi South 10.4 mph - N/A   Clear
5:58 PM 80.8 °F 84.1 °F 69.6 °F 69% 29.86 in 10.0 mi South 8.1 mph - N/A   Clear
6:57 PM 69.8 °F - 69.8 °F 100% 29.87 in 10.0 mi West 8.1 mph - N/A Rain Light Rain
6:58 PM 69.8 °F - 69.3 °F 98% 29.87 in 10.0 mi West 9.2 mph - N/A Rain Light Rain
7:14 PM 68.0 °F - 68.0 °F 100% 29.86 in 10.0 mi WNW 8.1 mph - N/A   Mostly Cloudy
7:44 PM 69.8 °F - 69.8 °F 100% 29.87 in 10.0 mi SSE 3.5 mph - N/A Thunderstorm Thunderstorm
7:53 PM 69.8 °F - 69.8 °F 100% 29.87 in 8.0 mi Variable 4.6 mph - N/A Rain , Thunderstorm Light Thunderstorms and Rain
7:58 PM 69.4 °F - 69.4 °F 100% 29.87 in 7.0 mi North 8.1 mph - 0.01 in Rain , Thunderstorm Light Thunderstorms and Rain
7:59 PM 69.8 °F - 69.8 °F 100% 29.87 in 7.0 mi North 6.9 mph - N/A Rain , Thunderstorm Light Rain
8:36 PM 68.0 °F - 68.0 °F 100% 29.86 in 10.0 mi West 4.6 mph - N/A Thunderstorm Scattered Clouds
8:49 PM 68.0 °F - 68.0 °F 100% 29.89 in 10.0 mi South 8.1 mph - N/A Thunderstorm Light Drizzle
8:58 PM 68.7 °F - 68.7 °F 100% 29.88 in 7.0 mi SSW 8.1 mph - 0.08 in Rain Light Rain
9:09 PM 68.0 °F - 68.0 °F 100% 29.86 in 2.5 mi West 9.2 mph - N/A Rain Heavy Rain
9:10 PM 68.0 °F - 68.0 °F 100% 29.86 in 2.5 mi West 10.4 mph - N/A Rain Heavy Rain
9:11 PM 68.0 °F - 68.0 °F 100% 29.86 in 2.5 mi West 10.4 mph - N/A Rain Heavy Rain
9:13 PM 68.0 °F - 68.0 °F 100% 29.87 in 2.5 mi WSW 9.2 mph - N/A Rain , Thunderstorm Rain
9:16 PM 68.0 °F - 68.0 °F 100% 29.87 in 2.5 mi WSW 9.2 mph - N/A Rain , Thunderstorm Light Rain
9:17 PM 68.0 °F - 68.0 °F 100% 29.87 in 3.0 mi WSW 9.2 mph - N/A Rain , Thunderstorm Light Rain
9:18 PM 68.0 °F - 68.0 °F 100% 29.87 in 4.0 mi WSW 8.1 mph - N/A Rain , Thunderstorm Light Thunderstorms and Rain
9:23 PM 68.0 °F - 68.0 °F 100% 29.88 in 5.0 mi SW 8.1 mph - N/A Rain , Thunderstorm Thunderstorms and Rain
9:31 PM 68.0 °F - 68.0 °F 100% 29.88 in 7.0 mi SSW 10.4 mph - N/A Rain , Thunderstorm Light Thunderstorms and Rain
9:41 PM 68.0 °F - 68.0 °F 100% 29.88 in 6.0 mi SSW 8.1 mph - N/A Rain , Thunderstorm Rain
9:44 PM 68.0 °F - 68.0 °F 100% 29.89 in 5.0 mi SSW 8.1 mph - N/A Rain , Thunderstorm Rain
9:48 PM 68.0 °F - 68.0 °F 100% 29.89 in 5.0 mi SSW 9.2 mph - N/A Rain , Thunderstorm Rain
9:58 PM 68.0 °F - 68.0 °F 100% 29.90 in 6.0 mi SSW 8.1 mph - 0.24 in Rain Rain
10:03 PM 68.0 °F - 68.0 °F 100% 29.90 in 6.0 mi South 6.9 mph - N/A Rain Rain
10:20 PM 68.0 °F - 68.0 °F 100% 29.91 in 5.0 mi South 4.6 mph - N/A Rain Rain
10:58 PM 68.0 °F - 68.0 °F 100% 29.91 in 7.0 mi SSE 6.9 mph - 0.20 in Rain Rain
11:19 PM 68.0 °F - 68.0 °F 100% 29.90 in 10.0 mi SSE 8.1 mph - N/A   Overcast
11:28 PM 68.0 °F - 68.0 °F 100% 29.91 in 10.0 mi South 8.1 mph - N/A Rain Light Rain
11:49 PM 68.0 °F - 68.0 °F 100% 29.88 in 10.0 mi SE 6.9 mph - N/A   Light Drizzle
11:53 PM 68.0 °F - 68.0 °F 100% 29.89 in 10.0 mi SSE 5.8 mph - N/A   Light Drizzle
11:54 PM 68.0 °F - 68.0 °F 100% 29.89 in 10.0 mi South 4.6 mph - N/A   Light Drizzle
11:58 PM 67.6 °F - 67.6 °F 100% 29.88 in 10.0 mi SSE 5.8 mph - 0.09 in   Light Drizzle
11:59 PM 68.0 °F - 68.0 °F 100% 29.88 in 10.0 mi SSE 5.8 mph - N/A   Light Drizzle